User: anonymous
Location: Nebula Knoll Observatory
(43.6666°N, 71.0000°W)
Time: 15:53:09
(UTC-04:00)
Language:

Cosmos 1782 - Orbit

View from above orbital plane
View from above orbital plane
View from above satellite
View from above satellite

Ground track
Ground track

The orbit data is extracted from the following two-line orbital elements,

1 16986U 86074A   14261.76938540  .00002946  00000-0  21564-3 0  8442
2 16986 082.5102 014.7604 0012788 155.6071 204.5763 15.03176622520033
Epoch (UTC): 18 September 2014 18:27:54
Eccentricity: 0.0012788
inclination: 82.5102°
perigee height: 548 km
apogee height: 566 km
right ascension of ascending node: 14.7604°
argument of perigee: 155.6071°
revolutions per day: 15.03176622
mean anomaly at epoch: 204.5763°
orbit number at epoch: 52003

The dashed part of the orbit path shows where the satellite is in the earth's shadow,  

DLR